Weather History for Stevens Point, WI

Change the Weather History Date:

Wednesday, December 21, 2011

  Actual Average Record
Temperature  
Mean Temperature 26 °F -  
Max Temperature 33 °F 26 °F 51 °F (1967)
Min Temperature 19 °F 9 °F -23 °F (1989)
Degree Days  
Heating Degree Days 39    
Moisture  
Dew Point 23 °F    
Average Humidity 85    
Maximum Humidity 100    
Minimum Humidity 65    
Precipitation  
Precipitation 0.00 in - - ()
Sea Level Pressure  
Sea Level Pressure 29.71 in    
Wind  
Wind Speed 1 mph (West)    
Max Wind Speed 7 mph    
Max Gust Speed -    
Visibility 8 miles    
Events      
Averages and records for this station are not official NWS values.
T = Trace of Precipitation, MM = Missing Value Source: NWS Daily Summary

Daily Weather History Graph

Daily Weather History Graph

Search for Another Location

Airport:

Trip Planner

Search our weather history database for the weather conditions in past years. The results will help you decide how hot, cold, wet, or windy it might be!

Date:

Astronomy

Dec. 21, 2011 Rise Set
Actual Time 7:31 AM CST 4:20 PM CST
Civil Twilight 6:57 AM CST 4:54 PM CST
Nautical Twilight 6:21 AM CST 5:31 PM CST
Astronomical Twilight 5:45 AM CST 6:06 PM CST
Moon 4:01 AM CST (12/21) 1:42 PM CST (12/21)
Length of Visible Light 9h 56m
Length of Day
8h 49m
Waning Crescent, 12% of the Moon is Illuminated
Dec 21
Waning Crescent
Dec 24
New
Jan 1
First Quarter
Jan 9
Full
Jan 16
Last Quarter

Hourly Weather History & Observations

Time (CST) Temp. Windchill Dew Point Humidity Pressure Visibility Wind Dir Wind Speed Gust Speed Precip Events Conditions
12:15 AM 19.4 °F - 17.6 °F 93% 29.75 in 3.0 mi Calm Calm - N/A   Scattered Clouds
12:35 AM 19.4 °F - 17.6 °F 93% 29.74 in 7.0 mi Calm Calm - N/A   Clear
12:55 AM 19.4 °F - 17.6 °F 93% 29.73 in 7.0 mi Calm Calm - N/A   Clear
1:15 AM 19.4 °F - 17.6 °F 93% 29.73 in 7.0 mi Calm Calm - N/A   Scattered Clouds
1:35 AM 19.4 °F - 19.4 °F 100% 29.72 in 10.0 mi Calm Calm - N/A   Mostly Cloudy
1:55 AM 19.4 °F - 17.6 °F 93% 29.71 in 10.0 mi Calm Calm - N/A   Mostly Cloudy
2:15 AM 21.2 °F - 19.4 °F 93% 29.71 in 7.0 mi Calm Calm - N/A   Mostly Cloudy
2:35 AM 21.2 °F - 21.2 °F 100% 29.71 in 7.0 mi Calm Calm - N/A   Overcast
2:55 AM 21.2 °F - 21.2 °F 100% 29.71 in 7.0 mi Calm Calm - N/A   Overcast
3:15 AM 21.2 °F - 21.2 °F 100% 29.70 in 7.0 mi Calm Calm - N/A   Scattered Clouds
3:35 AM 21.2 °F - 21.2 °F 100% 29.69 in 7.0 mi Calm Calm - N/A   Scattered Clouds
3:55 AM 21.2 °F - 21.2 °F 100% 29.68 in 7.0 mi Calm Calm - N/A   Overcast
4:15 AM 23.0 °F - 21.2 °F 93% 29.68 in 7.0 mi Calm Calm - N/A   Overcast
4:35 AM 23.0 °F - 21.2 °F 93% 29.68 in 10.0 mi Calm Calm - N/A   Overcast
4:55 AM 24.8 °F - 21.2 °F 86% 29.67 in 7.0 mi Calm Calm - N/A   Overcast
5:15 AM 23.0 °F - 21.2 °F 93% 29.67 in 10.0 mi Calm Calm - N/A   Mostly Cloudy
5:55 AM 24.8 °F - 23.0 °F 93% 29.67 in 7.0 mi Calm Calm - N/A   Overcast
6:15 AM 26.6 °F - 24.8 °F 93% 29.68 in 7.0 mi Calm Calm - N/A   Overcast
6:35 AM 26.6 °F - 24.8 °F 93% 29.67 in 4.0 mi Calm Calm - N/A   Overcast
6:55 AM 26.6 °F - 26.6 °F 100% 29.68 in 4.0 mi Calm Calm - N/A   Overcast
7:15 AM 26.6 °F 21.2 °F 26.6 °F 100% 29.67 in 1.2 mi WSW 4.6 mph - N/A   Overcast
7:35 AM 26.6 °F 20.0 °F 24.8 °F 93% 29.67 in 0.8 mi WSW 5.8 mph - N/A   Overcast
7:55 AM 26.6 °F 21.2 °F 24.8 °F 93% 29.67 in 0.8 mi SSW 4.6 mph - N/A   Overcast
8:15 AM 26.6 °F 21.2 °F 24.8 °F 93% 29.67 in 2.0 mi SW 4.6 mph - N/A   Overcast
8:35 AM 26.6 °F - 24.8 °F 93% 29.68 in 3.0 mi Calm Calm - N/A   Overcast
8:55 AM 26.6 °F - 24.8 °F 93% 29.67 in 2.5 mi Calm Calm - N/A   Overcast
9:15 AM 26.6 °F - 24.8 °F 93% 29.68 in 3.0 mi Calm Calm - N/A   Overcast
9:55 AM 26.6 °F 21.2 °F 24.8 °F 93% 29.68 in 4.0 mi WSW 4.6 mph - N/A   Overcast
10:35 AM 28.4 °F 23.3 °F 26.6 °F 93% 29.68 in 5.0 mi SW 4.6 mph - N/A   Overcast
10:55 AM 28.4 °F 21.2 °F 26.6 °F 93% 29.68 in 5.0 mi West 6.9 mph - N/A   Overcast
11:15 AM 28.4 °F 23.3 °F 24.8 °F 86% 29.68 in 4.0 mi West 4.6 mph - N/A   Mostly Cloudy
11:35 AM 30.2 °F 25.4 °F 24.8 °F 80% 29.67 in 5.0 mi West 4.6 mph - N/A   Haze
12:15 PM 32.0 °F 26.4 °F 24.8 °F 75% 29.66 in 10.0 mi West 5.8 mph - N/A   Scattered Clouds
12:35 PM 32.0 °F 26.4 °F 24.8 °F 75% 29.67 in 10.0 mi West 5.8 mph - N/A   Clear
12:55 PM 32.0 °F 25.6 °F 24.8 °F 75% 29.67 in 10.0 mi WSW 6.9 mph - N/A   Clear
1:15 PM 32.0 °F 26.4 °F 24.8 °F 75% 29.68 in 10.0 mi West 5.8 mph - N/A   Clear
1:35 PM 33.8 °F 28.6 °F 24.8 °F 70% 29.68 in 10.0 mi West 5.8 mph - N/A   Clear
1:55 PM 33.8 °F 29.6 °F 24.8 °F 70% 29.68 in 10.0 mi West 4.6 mph - N/A   Clear
2:15 PM 33.8 °F 29.6 °F 24.8 °F 70% 29.68 in 10.0 mi WSW 4.6 mph - N/A   Clear
2:35 PM 33.8 °F 29.6 °F 24.8 °F 70% 29.68 in 10.0 mi West 4.6 mph - N/A   Clear
2:55 PM 33.8 °F 29.6 °F 23.0 °F 65% 29.69 in 10.0 mi West 4.6 mph - N/A   Clear
3:15 PM 33.8 °F 29.6 °F 24.8 °F 70% 29.70 in 10.0 mi West 4.6 mph - N/A   Scattered Clouds
3:35 PM 33.8 °F - 23.0 °F 65% 29.71 in 10.0 mi Calm Calm - N/A   Scattered Clouds
3:55 PM 33.8 °F - 23.0 °F 65% 29.71 in 10.0 mi Calm Calm - N/A   Mostly Cloudy
4:15 PM 32.0 °F - 23.0 °F 69% 29.72 in 10.0 mi Calm Calm - N/A   Mostly Cloudy
4:35 PM 30.2 °F - 23.0 °F 75% 29.74 in 10.0 mi Calm Calm - N/A   Scattered Clouds
4:55 PM 30.2 °F - 23.0 °F 75% 29.75 in 10.0 mi Calm Calm - N/A   Clear
5:15 PM 30.2 °F - 23.0 °F 75% 29.76 in 10.0 mi Calm Calm - N/A   Mostly Cloudy
5:55 PM 30.2 °F 25.4 °F 24.8 °F 80% 29.78 in 10.0 mi West 4.6 mph - N/A   Overcast
6:15 PM 30.2 °F 26.7 °F 24.8 °F 80% 29.79 in 10.0 mi West 3.5 mph - N/A   Overcast
6:35 PM 30.2 °F - 24.8 °F 80% 29.80 in 10.0 mi Calm Calm - N/A   Overcast
6:55 PM 30.2 °F - 24.8 °F 80% 29.79 in 10.0 mi Calm Calm - N/A   Overcast
7:15 PM 30.2 °F 26.7 °F 24.8 °F 80% 29.80 in 10.0 mi WNW 3.5 mph - N/A   Mostly Cloudy
7:35 PM 30.2 °F 25.4 °F 24.8 °F 80% 29.80 in 10.0 mi WNW 4.6 mph - N/A   Overcast
7:55 PM 30.2 °F 25.4 °F 24.8 °F 80% 29.80 in 10.0 mi NW 4.6 mph - N/A   Overcast
8:15 PM 30.2 °F - 24.8 °F 80% 29.82 in 10.0 mi Calm Calm - N/A   Overcast
8:35 PM 30.2 °F - 24.8 °F 80% 29.82 in 10.0 mi Calm Calm - N/A   Overcast
8:55 PM 30.2 °F 26.7 °F 24.8 °F 80% 29.83 in 10.0 mi NW 3.5 mph - N/A   Overcast
9:15 PM 30.2 °F 26.7 °F 24.8 °F 80% 29.84 in 10.0 mi WNW 3.5 mph - N/A   Overcast
9:35 PM 30.2 °F 25.4 °F 24.8 °F 80% 29.86 in 10.0 mi WNW 4.6 mph - N/A   Overcast
9:55 PM 30.2 °F 25.4 °F 26.6 °F 86% 29.88 in 7.0 mi West 4.6 mph - N/A   Overcast
10:15 PM 30.2 °F 25.4 °F 26.6 °F 86% 29.89 in 5.0 mi WNW 4.6 mph - N/A   Haze
10:35 PM 30.2 °F 25.4 °F 26.6 °F 86% 29.89 in 4.0 mi WNW 4.6 mph - N/A Snow Light Snow
10:55 PM 30.2 °F 25.4 °F 26.6 °F 86% 29.90 in 2.5 mi NW 4.6 mph - N/A Snow Light Snow
11:15 PM 30.2 °F 25.4 °F 28.4 °F 93% 29.91 in 2.0 mi NW 4.6 mph - N/A Snow Light Snow
11:35 PM 30.2 °F 24.3 °F 28.4 °F 93% 29.91 in 1.8 mi NNW 5.8 mph - N/A Snow Heavy Snow
11:55 PM 30.2 °F 25.4 °F 26.6 °F 86% 29.92 in 2.5 mi NNW 4.6 mph - N/A   Overcast